Find STARLINK-37504

NORAD ID: 68913 Constellation: starlink operational
LEOCIRCULARRETROGRADE

Live Position

Loading 3D Globe...

About STARLINK-37504

Description loading...

Upcoming Passes

Passes for default location (London). Set your location on the main map for personalized predictions.

Altitude History

Loading altitude history...

Two-Line Element Set

1 68913U 26097U 26125.50001156 -.02062938 12178-2 -49100-2 0 9994
2 68913 97.2869 320.4954 0001495 86.0155 149.7958 15.96812921 2044
Epoch: May 5, 2026 • Age: 7 hours